KE2BQW Weather Reports


time (UTC)temp
C
wind
direction
speed
KPH
gust
KPH
rain 1hr
cm
rain 24hr
cm
rain mn
cm
humidity
%
barometer
mb
20260505035515 17 0.0 0.0 0.00 0.00 0.00 50 1003.2
20260505034515 18 0.0 0.0 0.00 0.00 0.00 49 1003.3
20260505033515 18 0.0 0.0 0.00 0.00 0.00 47 1003.4
20260505032536 17 0.0 0.0 0.00 0.00 0.00 46 1003.5
20260505031516 16 0.0 0.0 0.00 0.00 0.00 49 1003.3
20260505030516 16 0.0 0.0 0.00 0.00 0.00 49 1003.0
20260505025535 15 0.0 0.0 0.00 0.00 0.00 50 1003.0
20260505024516 15 0.0 0.0 0.00 0.00 0.00 52 1003.0
20260505023517 15 0.0 0.0 0.00 0.00 0.00 51 1002.9
20260505022516 15 0.0 0.0 0.00 0.00 0.00 50 1003.0
20260505021516 15 0.0 0.0 0.00 0.00 0.00 49 1003.1
20260505020515 16 0.0 0.0 0.00 0.00 0.00 48 1003.3
20260505015517 16 0.0 0.0 0.00 0.00 0.00 47 1003.4
20260505014516 16 0.0 0.0 0.00 0.00 0.00 46 1003.4
20260505013516 16 0.0 0.0 0.00 0.00 0.00 45 1003.4
20260505012516 17 0.0 0.0 0.00 0.00 0.00 43 1003.3
20260505011516 17 0.0 0.0 0.00 0.00 0.00 42 1003.1
20260505010515 18 0.0 0.0 0.00 0.00 0.00 41 1003.0
20260505005517 18 0.0 0.0 0.00 0.00 0.00 40 1003.0
20260505004517 19 0.0 0.0 0.00 0.00 0.00 37 1002.9
20260505003515 20 0.0 0.0 0.00 0.00 0.00 36 1002.9
20260505002517 20 0.0 0.0 0.00 0.00 0.00 33 1003.0
20260505001538 21 0.0 0.0 0.00 0.00 0.00 33 1003.0
20260505000516 21 0.0 0.0 0.00 0.00 0.00 32 1002.9
20260504235515 22 0.0 0.0 0.00 0.00 0.00 31 1002.8
20260504234516 22 0.0 0.0 0.00 0.00 0.00 30 1002.8
20260504233537 22 0.0 0.0 0.00 0.00 0.00 29 1002.7
20260504232537 22 0.0 0.0 0.00 0.00 0.00 28 1002.7
20260504231516 23 0.0 0.0 0.00 0.00 0.00 28 1002.6
20260504230516 23 0.0 0.0 0.00 0.00 0.00 28 1002.6
20260504225516 23 0.0 0.0 0.00 0.00 0.00 27 1002.6
20260504224517 23 0.0 0.0 0.00 0.00 0.00 27 1002.5
20260504223516 23 0.0 0.0 0.00 0.00 0.00 27 1002.5
20260504222518 23 0.0 0.0 0.00 0.00 0.00 27 1002.4
20260504221515 23 0.0 0.0 0.00 0.00 0.00 27 1002.4
20260504220516 23 0.0 0.0 0.00 0.00 0.00 27 1002.5
20260504215516 24 0.0 0.0 0.00 0.00 0.00 27 1002.6
20260504214557 24 0.0 0.0 0.00 0.00 0.00 27 1002.7
20260504213516 24 0.0 0.0 0.00 0.00 0.00 27 1002.7
20260504212517 24 0.0 0.0 0.00 0.00 0.00 27 1002.8
20260504211516 23 0.0 0.0 0.00 0.00 0.00 27 1002.8
20260504210516 23 0.0 0.0 0.00 0.00 0.00 27 1002.9
20260504205516 23 0.0 0.0 0.00 0.00 0.00 29 1002.9
20260504204516 23 0.0 0.0 0.00 0.00 0.00 29 1003.1
20260504203516 23 0.0 0.0 0.00 0.00 0.00 28 1003.2
20260504202517 23 0.0 0.0 0.00 0.00 0.00 28 1003.3
20260504201517 23 0.0 0.0 0.00 0.00 0.00 28 1003.3
20260504200517 23 0.0 0.0 0.00 0.00 0.00 29 1003.5
20260504195517 23 0.0 0.0 0.00 0.00 0.00 30 1003.6
20260504194515 23 0.0 0.0 0.00 0.00 0.00 30 1003.8
20260504193517 23 0.0 0.0 0.00 0.00 0.00 30 1004.0
20260504192516 23 0.0 0.0 0.00 0.00 0.00 30 1004.1
20260504191515 23 0.0 0.0 0.00 0.00 0.00 31 1004.2
20260504190516 22 0.0 0.0 0.00 0.00 0.00 31 1004.4
20260504185516 22 0.0 0.0 0.00 0.00 0.00 33 1004.5
20260504184516 22 0.0 0.0 0.00 0.00 0.00 32 1004.6
20260504183516 22 0.0 0.0 0.00 0.00 0.00 33 1004.8
20260504182516 22 0.0 0.0 0.00 0.00 0.00 34 1004.9
20260504181517 22 0.0 0.0 0.00 0.00 0.00 34 1005.0
20260504180536 22 0.0 0.0 0.00 0.00 0.00 35 1005.1
20260504175516 21 0.0 0.0 0.00 0.00 0.00 35 1005.2
20260504174515 21 0.0 0.0 0.00 0.00 0.00 35 1005.2
20260504173517 22 0.0 0.0 0.00 0.00 0.00 36 1005.2
20260504172516 21 0.0 0.0 0.00 0.00 0.00 37 1005.3
20260504171515 21 0.0 0.0 0.00 0.00 0.00 37 1005.4
20260504170515 21 0.0 0.0 0.00 0.00 0.00 38 1005.5
20260504150517 17 0.0 0.0 0.00 0.00 0.00 41 1006.4
20260504140517 16 0.0 0.0 0.00 0.00 0.00 43 1006.5
20260504130517 13 0.0 0.0 0.00 0.00 0.00 45 1007.4
20260504110517 11 0.0 0.0 0.00 0.00 0.00 47 1008.1
20260504100517 11 0.0 0.0 0.00 0.00 0.00 47 1007.8
20260504081515 10 0.0 0.0 0.00 0.00 0.00 50 1008.6
20260504080516 10 0.0 0.0 0.00 0.00 0.00 51 1008.7
20260504050516 11 0.0 0.0 0.00 0.00 0.00 47 1009.6
20260504045517 11 0.0 0.0 0.00 0.00 0.00 46 1009.7
20260504044522 11 0.0 0.0 0.00 0.00 0.00 45 1009.7
20260504043516 12 0.0 0.0 0.00 0.00 0.00 44 1009.7
20260504042516 12 0.0 0.0 0.00 0.00 0.00 43 1009.6
20260504041515 12 0.0 0.0 0.00 0.00 0.00 43 1009.6
20260504040537 12 0.0 0.0 0.00 0.00 0.00 43 1009.5